Location: Gymnasium_Grossenhain
(51.3000°N, 13.5950°E)
Time: 10:10:37
(UTC+01:00)

BlueWalker 3 - Pass Details

Date: 08 October 2024
Orbit: 470 x 481 km, 53.2° (Epoch: 11 November)

Event Time Altitude Azimuth Distance (km) Brightness Sun altitude
Exits shadow 05:39:22 26° 213° (SSW) 971 3.0 -16.2°
Maximum altitude 05:41:07 49° 151° (SSE) 617 2.5 -15.9°
Drops below altitude 10° 05:44:41 10° 76° (ENE) 1,635 5.9 -15.4°
Sets 05:46:53 0° 71° (ENE) 2,516 7.2 -15.0°
